AirNav   Air Wisconsin pilot careers
 
 886 users online  

88AZ
(formerly E75)
Grapevine Airstrip
Roosevelt, Arizona, USA

GOING TO ROOSEVELT?


FAA INFORMATION EFFECTIVE 16 AUGUST 2018

Location

FAA Identifier: 88AZ
Lat/Long: 33-38-27.2700N / 111-03-24.9000W
33-38.454500N / 111-03.415000W
33.6409083 / -111.0569167
(estimated)
Elevation: 2329 ft. / 710 m (estimated)
Variation: 11E (2015)
From city: 5 miles SE of ROOSEVELT, AZ
Time zone: UTC -7 (year round; does not observe DST)
Zip code: 85545

Airport Operations

Airport use: Private use. Permission required prior to landing
Activation date: 11/2016
Control tower: no
ARTCC: ALBUQUERQUE CENTER
FSS: PRESCOTT FLIGHT SERVICE STATION
Attendance: 
Wind indicator: yes
Segmented circle: yes

Airport Communications

CTAF: 122.9

Nearby radio navigation aids

VOR radial/distance  VOR name  Freq  Var
IWAr043/36.0WILLIE VORTAC113.3013E

Airport Services

Runway Information

Runway 17/35

Dimensions: 3800 x 40 ft. / 1158 x 12 m
Surface: asphalt/concrete
RUNWAY 17  RUNWAY 35
Traffic pattern: leftleft
Runway heading: 159 magnetic, 170 true339 magnetic, 350 true

Airport Ownership and Management from official FAA records

Ownership: Publicly-owned
Owner: U.S. FOREST SERV, TONTO NATL FOREST
TONTO BASIN DISTRICT, 28079 N. AZ HWY 188
ROOSEVELT, AZ 85545
Phone (602) 225-5395
Manager: U.S. FOREST SERV, TONTO NATL FOREST
TONTO BASIN DISTRICT, 28079 N. AZ HWY 188
ROOSEVELT, AZ 85545
Phone (602) 225-5395

Additional Remarks

USE AT PILOTS OWN RISK, NO TRAINING OR TOUCH AND GOES PERMITED.
CONTACT GRAPEVINE@AZPILOTS.ORG FOR CAMPING AND USE INFO.
HAZARDOUS RUNWAY EDGES, AVOID USAGE WHEN CROSS WINDS PRESENT.
RISING TERRAIN WEST OF RWY.
MILTARY TRAINING ACTIVITY POSSIBLE.
DIRT PARKING EAST SIDE OF RWY AT MIDFIELD, NO TIE DOWNS. LIMITED RAMP PARKING W/TIE DOWNS AT WEST RAMP. CALM WIND RWY 17.
AVOID OVERFLIGHT OF TONTO NATIONAL MONUMENT, 3.25 MILES WNW OF AIRSTRIP, OR ANY CAMP GROUNDS.

Instrument Procedures

There are no published instrument procedures at 88AZ.

Some nearby airports with instrument procedures:

P13 - San Carlos Apache Airport (26 nm SE)
KFFZ - Falcon Field Airport (35 nm W)
KIWA - Phoenix-Mesa Gateway Airport (36 nm SW)
KPAN - Payson Airport (40 nm N)
KSDL - Scottsdale Airport (43 nm W)
 
Loc | Ops | Rwys | IFR | FBO | Links
Com | Nav | Svcs | Stats | Notes


 
Aerial photo
No photo
 
Airport distance calculator
Flying to Grapevine Airstrip? Find the distance to fly.

From to 88AZ

Sunrise and sunset
Times for 18-Aug-2018
 Local
(UTC-7)
 Zulu
(UTC)
Morning civil twilight05:2312:23
Sunrise05:4912:49
Sunset19:0702:07
Evening civil twilight19:3302:33

Current date and time
Zulu (UTC)  19-Aug-2018 00:47:20
Local (UTC-7)  18-Aug-2018 17:47:20
 
METAR
KFFZ 
35nm W 
182347Z 22005G15KT 40SM SCT100 BKN200 39/17 A2986
KIWA 
36nm SW 
190005Z 25009G17KT 45SM FEW100 SCT150 39/17 A2987
KPAN 
40nm N 
190035Z AUTO 28005KT 10SM CLR 24/16 A3021 RMK AO2
KSDL 
43nm W 
182353Z 24010KT 10SM SCT100 40/16 A2987 RMK AO2 LTG DSNT N AND NE SLP085 T04000161 10406 20361 56016
KCHD 
44nm SW 
182347Z 30003KT 10SM BKN080 BKN200 40/15 A2985
KP08 
46nm SW 
190035Z AUTO 27011KT 10SM CLR 38/15 A2988 RMK AO2
TAF
KIWA 
36nm SW 
181726Z 1818/1918 VRB04KT P6SM FEW100 SCT250 FM181900 26010G15KT P6SM SCT100 SCT250 TEMPO 1823/1903 26015G22KT FM190400 22008KT P6SM FEW100 SCT250 FM190700 12006KT P6SM FEW250
KSDL 
43nm W 
190025Z 1900/1924 26008KT P6SM VCSH SCT080 SCT250 FM190130 VRB05KT P6SM FEW080 SCT250 FM190800 VRB03KT P6SM FEW250 FM191700 26007KT P6SM FEW250
NOTAMs
Click for the latest NOTAMs
NOTAMs are issued by the DoD/FAA and will open in a separate window not controlled by AirNav.

 

 
 

Would you like to see your business listed on this page?

 If your business provides an interesting product or service to pilots, flight crews, aircraft, or users of the Grapevine Airstrip, you should consider listing it here.  To start the listing process, click on the button below
 
Add a business
 

Other Pages about Grapevine Airstrip

Update a link
 
Copyright © AirNav, LLC. All rights reserved. Privacy Policy  Contact